Location: North Smoke Tower Site
(30.5430°N, 82.3390°W)
Time: 10:37:27
(UTC-04:00)

Cosmos 1980 Rocket - Visible Passes

Search period start: 28 July 2016 00:00
Search period end: 07 August 2016 00:00
Orbit: 828 x 851 km, 71.0° (Epoch: 27 July)

Date Brightness Start Highest point End Pass type
(mag) Time Alt. Az. Time Alt. Az. Time Alt. Az.
28 Jul 2.0 04:16:24 86° WSW 04:16:28 86° WNW 04:22:09 10° NNE visible
29 Jul 2.3 04:01:23 74° NNE 04:01:23 74° NNE 04:06:30 10° NNE visible
29 Jul 4.3 05:44:58 10° WNW 05:45:31 10° NW 05:46:03 10° NW visible
30 Jul 2.7 03:46:20 58° NNE 03:46:20 58° NNE 03:50:50 10° NNE visible
30 Jul 4.3 05:28:16 10° WNW 05:29:48 11° NW 05:31:20 10° NW visible
31 Jul 3.1 03:31:15 46° NNE 03:31:15 46° NNE 03:35:10 10° NNE visible
31 Jul 4.2 05:13:01 11° WNW 05:14:05 12° WNW 05:16:10 10° NW visible
01 Aug 3.5 03:16:07 37° NE 03:16:07 37° NE 03:19:30 10° NNE visible
01 Aug 4.2 04:57:54 13° WNW 04:58:22 13° WNW 05:00:54 10° NNW visible
02 Aug 3.8 03:00:58 30° NE 03:00:58 30° NE 03:03:49 10° NNE visible
02 Aug 4.2 04:42:45 14° WNW 04:42:45 14° WNW 04:45:32 10° NNW visible
03 Aug 4.1 02:45:47 25° NE 02:45:47 25° NE 02:48:09 10° NNE visible
03 Aug 4.2 04:27:33 15° NW 04:27:33 15° NW 04:30:08 10° NNW visible
04 Aug 4.3 02:30:34 21° NE 02:30:34 21° NE 02:32:28 10° NNE visible
04 Aug 4.2 04:12:20 15° NW 04:12:20 15° NW 04:14:42 10° NNW visible
05 Aug 4.5 02:15:19 18° NE 02:15:19 18° NE 02:16:46 10° NNE visible
05 Aug 4.3 03:57:06 16° NW 03:57:06 16° NW 03:59:14 10° NNW visible
06 Aug 4.7 02:00:03 15° NE 02:00:03 15° NE 02:01:05 10° NNE visible
06 Aug 4.4 03:41:49 16° NW 03:41:49 16° NW 03:43:46 10° NNW visible
